Location: Hope
(40.9110°N, 74.9680°W)
Time: 05:05:03
(UTC-04:00)

Tiangong 2 - Pass Details

Date: 26 January 2019
Orbit: 378 x 389 km, 42.8° (Epoch: 22 April)

Event Time Altitude Azimuth Distance (km) Brightness Sun altitude
Exits shadow 06:35:49 10° 270° (W) 1,441 3.4 -7.9°
Reaches altitude 10° 06:35:55 10° 269° (W) 1,408 3.3 -7.9°
Maximum altitude 06:38:39 27° 209° (SSW) 788 2.5 -7.4°
Drops below altitude 10° 06:41:23 10° 150° (SSE) 1,409 4.7 -6.9°
Sets 06:43:38 0° 137° (SE) 2,264 6.2 -6.5°
